Regional Weather Roundup
Issued by NWS

Home | Current Version | Previous Version | Text Only | Print | Product List | Glossary On
Versions: 1 2 3 4 5 6 7 8 9 10 11 12 13 14 15 16 17 18 19 20 21 22 23 24 25 26 27 28 29 30 31 32 33 34 35 36 37 38 39 40 41 42 43 44 45 46 47 48 49 50
000
ASUS45 KPSR 302110
RWRAZ

ARIZONA HOURLY REGIONAL WEATHER ROUNDUP
NATIONAL WEATHER SERVICE PHOENIX AZ
200 PM MST THU JUL 30 2015

NOTE: FAIR INDICATES FEW OR NO CLOUDS BELOW 12,000 FEET WITH NO
SIGNIFICANT WEATHER AND/OR OBSTRUCTIONS TO VISIBILITY.

AZZ001>003-036-302200-
NORTHWEST ARIZONA

CITY           SKY/WX    TMP DP  RH WIND       PRES   REMARKS
BULLHEAD CITY  FAIR     106  54  17 CALM      29.89F HX 104
KINGMAN        FAIR      96  48  19 NW8       30.11F
$$

AZZ004>008-015-016-018-302200-
NORTH CENTRAL ARIZONA

CITY           SKY/WX    TMP DP  RH WIND       PRES   REMARKS
GRAND CANYON   CLOUDY    78  45  30 NE8       30.40F
WILLIAMS       CLOUDY    72  54  53 W7        30.46F
PRESCOTT       PTSUNNY   82  53  36 NE7       30.27F
FLAGSTAFF      PTSUNNY   73  53  49 NE10G20   30.42F
PAYSON         PTSUNNY   81  59  47 VRB6G13   30.28F
PAGE           FAIR      91  51  25 N6        30.20F
$$

AZZ009>014-017-302200-
NORTHEAST ARIZONA

CITY           SKY/WX    TMP DP  RH WIND       PRES   REMARKS
WINSLOW        FAIR      86  52  30 E10       30.27F
SAINT JOHNS    FAIR      76  55  48 VRB3      30.33F
SHOW LOW       PTSUNNY   68  57  68 NE10      30.39F
$$

AZZ023-302200-
GREATER PHOENIX AREA

CITY           SKY/WX    TMP DP  RH WIND       PRES   REMARKS
PHOENIX        FAIR     103  59  23 SE8       29.94F HX 103
GLENDALE       MOSUNNY  100  59  25 VRB5      29.96F HX 100
DEER VALLEY    FAIR      98  58  26 SW7       29.96F
SCOTTSDALE     FAIR     100  58  24 S8        29.98F
MESA-FALCON    MOSUNNY  104  57  21 S12       29.96F HX 103
MESA-GATEWAY   MOSUNNY   99  64  32 MISG      29.98F HX 101
CHANDLER       MOSUNNY  100  61  27 VRB5      29.96F HX 101
$$

AZZ027-028-302200-
SOUTHWEST MARICOPA COUNTY AND PINAL COUNTY

CITY           SKY/WX    TMP DP  RH WIND       PRES   REMARKS
CASA GRANDE    FAIR      99  57  25 CALM      29.96F
$$

AZZ503-504-507>509-302200-
SOUTHEAST ARIZONA

CITY           SKY/WX    TMP DP  RH WIND       PRES   REMARKS
TUCSON         FAIR      95  58  28 SE8       30.08F
DAVIS-MONTHAN  FAIR      93  58  30 VRB3      30.06F
RYAN FIELD     SUNNY     97  63  32 NE5       30.06F
NOGALES        FAIR      91  61  36 W6        30.16F
SIERRA VISTA   FAIR      85  58  39 W8        30.23F
DOUGLAS          N/A    N/A N/A N/A MISG      30.17F
SAFFORD        FAIR      92  60  34 VRB5      30.11F
$$

AZZ020-021-025-026-031-302200-
SOUTHWEST ARIZONA

CITY           SKY/WX    TMP DP  RH WIND       PRES   REMARKS
YUMA           PTSUNNY  106  63  24 SW7       29.87F HX 109
$$

CAZ031-033-041-043-047-048-061-302200-
SOUTHERN CALIFORNIA

CITY           SKY/WX    TMP DP  RH WIND       PRES   REMARKS
DOWNTOWN L.A.  FAIR      81  65  58 CALM      29.98S
L.A. AIRPORT   FAIR      76  65  68 W14       30.00F
SAN DIEGO      FAIR      78  65  63 W9        30.01F
BURBANK        FAIR      89  65  44 S8        29.97F
ONTARIO        FAIR      96  64  34 W16G24    29.97F
RIVERSIDE      PTSUNNY   95  65  37 W13       29.96F
PALM SPRINGS   FAIR     107  63  23 SE9       29.91F HX 110
EL CENTRO NAS  FAIR     106  62  23 SE8G17    29.87F HX 108
IMPERIAL       FAIR     105  63  25 VRB7      29.86F HX 108
BLYTHE         FAIR     106  61  23 S8        29.88F HX 107
NEEDLES        FAIR     110  53  15 NW9       29.90F HX 108
$$

NVZ020-UTZ003-302200-
SOUTHERN NEVADA-UTAH

CITY           SKY/WX    TMP DP  RH WIND       PRES   REMARKS
LAS VEGAS      PTSUNNY  103  47  15 NE7       29.98F
SALT LAKE CITY FAIR      92  26   9 NW12      30.25F
$$

NMZ009-TXZ055-302200-
NEW MEXICO-WEST TEXAS

CITY           SKY/WX    TMP DP  RH WIND       PRES   REMARKS
ALBUQUERQUE    PTSUNNY   77  58  51 E15       30.34F
EL PASO        FAIR      87  60  40 CALM      30.19F
$$


........................KEY........................
SKY/WX - SKY CONDITION/WEATHER
TMP    - TEMPERATURE IN FAHRENHEIT
DP     - DEW POINT IN FAHRENHEIT
RH     - RELATIVE HUMIDITY IN PERCENT
WIND   - DIRECTION AND SPEED IN MILES PER HOUR (MPH)
VRB    - VARIABLE WIND DIRECTION
PRES   - MEAN SEA LEVEL PRESSURE IN INCHES OF MERCURY
         F - FALLING PRESSURE   R - RISING PRESSURE
         S - STEADY PRESSURE
VSB    - VISIBILITY IN MILES
HX     - HEAT INDEX IN FAHRENHEIT
WCI    - WIND CHILL INDEX IN FAHRENHEIT
TC     - TEMPERATURE IN CELSIUS WHICH IS ALSO KNOWN AS
         TEMPERATURE IN CENTIGRADE
AFB    - AIR FORCE BASE
         LUKE AFB IS LUKE AIR FORCE BASE
         DAVIS-MONTHAN IS DAVIS-MONTHAN AIR FORCE BASE
NAS    - NAVAL AIR STATION
         EL CENTRO NAS IS EL CENTRO NAVAL AIR STATION
N/A    - NOT AVAILABLE



USA.gov is the U.S. government's official web portal to all federal, state and local government web resources and services.